Location: Newark
(44.6768°N, 22.5302°E)
Time: 16:43:41
(UTC+00:00)

CAS-6 - Pass Details

Date: 03 July 2022
Orbit: 613 x 634 km, 97.9° (Epoch: 19 August)

Event Time Altitude Azimuth Distance (km) Brightness Sun altitude
Exits shadow 22:16:18 - 256° (WSW) 2,051 ? -22.3°
Reaches altitude 10° 22:16:55 10° 263° (W) 2,000 ? -22.3°
Maximum altitude 22:17:33 10° 272° (W) 1,982 ? -22.3°
Drops below altitude 10° 22:18:12 10° 281° (W) 2,000 ? -22.3°
Sets 22:22:38 0° 324° (NW) 2,909 ? -22.4°
